SV7RNH Weather Reports


Display with metric or nautical units.
time (UTC)temp
F
wind
direction
speed
MPH
gust
MPH
rain 1hr
in
rain 24hr
in
rain mn
in
humidity
%
barometer
mb
20260506044503 65 225 1.0 2.0 0.00 0.00 0.00 48 1017.3
20260506044004 65 225 1.0 3.0 0.00 0.00 0.00 49 1017.3
20260506043504 64 0 0.0 3.0 0.00 0.00 0.00 50 1017.2
20260506043003 63 229 1.0 3.0 0.00 0.00 0.00 52 1017.2
20260506042503 61 0 0.0 4.0 0.00 0.00 0.00 53 1017.1
20260506042004 60 0 0.0 4.0 0.00 0.00 0.00 53 1017.1
20260506041504 60 0 0.0 2.0 0.00 0.00 0.00 53 1017.0
20260506041003 60 0 0.0 2.0 0.00 0.00 0.00 53 1017.0
20260506040503 60 0 0.0 2.0 0.00 0.00 0.00 54 1017.0
20260506040004 59 0 0.0 2.0 0.00 0.00 0.00 54 1016.9
20260506035504 59 85 1.0 3.0 0.00 0.00 0.00 54 1016.7
20260506035003 59 0 0.0 5.0 0.00 0.00 0.00 54 1016.7
20260506034503 59 310 1.0 5.0 0.00 0.00 0.00 54 1016.7
20260506034004 59 228 2.0 4.0 0.00 0.00 0.00 54 1016.7
20260506033504 59 0 0.0 4.0 0.00 0.00 0.00 53 1016.7
20260506033004 59 0 0.0 4.0 0.00 0.00 0.00 53 1016.7
20260506032503 59 0 0.0 2.0 0.00 0.00 0.00 53 1016.8
20260506032004 59 356 1.0 5.0 0.00 0.00 0.00 53 1016.8
20260506031503 59 347 1.0 5.0 0.00 0.00 0.00 53 1016.7
20260506031004 59 0 0.0 4.0 0.00 0.00 0.00 53 1016.7
20260506030503 59 0 0.0 5.0 0.00 0.00 0.00 52 1016.7
20260506030003 59 0 0.0 5.0 0.00 0.00 0.00 52 1016.6
20260506025503 59 26 2.0 7.0 0.00 0.00 0.00 52 1016.7
20260506025003 59 37 1.0 7.0 0.00 0.00 0.00 51 1016.6
20260506024503 59 51 2.0 7.0 0.00 0.00 0.00 51 1016.6
20260506024004 60 19 2.0 4.0 0.00 0.00 0.00 51 1016.7
20260506023503 60 239 2.0 4.0 0.00 0.00 0.00 51 1016.5
20260506023004 60 0 0.0 4.0 0.00 0.00 0.00 50 1016.6
20260506022503 60 230 1.0 3.0 0.00 0.00 0.00 49 1016.6
20260506022003 60 0 0.0 3.0 0.00 0.00 0.00 48 1016.7
20260506021503 60 0 0.0 3.0 0.00 0.00 0.00 47 1016.7
20260506021004 60 42 1.0 3.0 0.00 0.00 0.00 46 1016.6
20260506020504 60 0 0.0 2.0 0.00 0.00 0.00 45 1016.7
20260506020003 61 36 1.0 2.0 0.00 0.00 0.00 45 1016.6
20260506015503 61 0 0.0 2.0 0.00 0.00 0.00 44 1016.6
20260506015003 61 0 0.0 2.0 0.00 0.00 0.00 44 1016.6
20260506014504 62 98 1.0 2.0 0.00 0.00 0.00 44 1016.6
20260506014003 62 0 0.0 3.0 0.00 0.00 0.00 43 1016.5
20260506013503 62 31 1.0 3.0 0.00 0.00 0.00 42 1016.5
20260506013003 62 16 2.0 3.0 0.00 0.00 0.00 42 1016.6
20260506012504 62 352 1.0 3.0 0.00 0.00 0.00 42 1016.6
20260506012004 62 0 0.0 2.0 0.00 0.00 0.00 42 1016.6
20260506011503 62 0 0.0 2.0 0.00 0.00 0.00 42 1016.5
20260506011003 62 0 0.0 2.0 0.00 0.00 0.00 42 1016.5
20260506010503 63 0 0.0 2.0 0.00 0.00 0.00 42 1016.4
20260506010004 63 0 0.0 2.0 0.00 0.00 0.00 42 1016.4
20260506005503 63 262 1.0 3.0 0.00 0.00 0.00 43 1016.4
20260506005003 62 0 0.0 5.0 0.00 0.00 0.00 43 1016.4
20260506004503 62 0 0.0 5.0 0.00 0.00 0.00 44 1016.4
20260506004004 62 251 2.0 6.0 0.00 0.00 0.00 45 1016.3
20260506003503 63 282 3.0 6.0 0.00 0.00 0.00 45 1016.3
20260506003003 63 256 1.0 4.0 0.00 0.00 0.00 43 1016.2
20260506002503 63 0 0.0 3.0 0.00 0.00 0.00 42 1016.3
20260506002004 64 0 0.0 3.0 0.00 0.00 0.00 42 1016.1
20260506001504 64 225 2.0 3.0 0.00 0.00 0.00 42 1016.2
20260506001003 64 0 0.0 3.0 0.00 0.00 0.00 42 1016.2
20260506000503 64 0 0.0 4.0 0.00 0.00 0.00 41 1016.2
20260506000003 64 0 0.0 4.0 0.00 0.00 0.00 41 1016.2
20260505235503 64 266 1.0 4.0 0.00 0.00 0.00 40 1016.2
20260505235004 65 0 0.0 4.0 0.00 0.00 0.00 39 1016.2
20260505234504 65 35 2.0 4.0 0.00 0.00 0.00 39 1016.2
20260505234003 65 0 0.0 3.0 0.00 0.00 0.00 39 1016.1
20260505233503 65 335 1.0 3.0 0.00 0.00 0.00 39 1016.2
20260505233003 65 0 0.0 6.0 0.00 0.00 0.00 39 1016.2
20260505232504 65 0 0.0 6.0 0.00 0.00 0.00 39 1016.1
20260505232003 65 2 1.0 6.0 0.00 0.00 0.00 39 1016.1
20260505231503 65 0 0.0 4.0 0.00 0.00 0.00 40 1016.1
20260505231003 65 0 0.0 4.0 0.00 0.00 0.00 40 1016.4
20260505230504 65 43 1.0 5.0 0.00 0.00 0.00 40 1016.2
20260505230004 65 35 1.0 8.0 0.00 0.00 0.00 39 1016.2
20260505225504 65 13 1.0 8.0 0.00 0.00 0.00 39 1016.2
20260505225003 65 12 4.0 8.0 0.00 0.00 0.00 39 1016.2
20260505224504 66 25 2.0 6.0 0.00 0.00 0.00 39 1016.2
20260505224003 66 27 1.0 5.0 0.00 0.00 0.00 39 1016.3
20260505223503 66 0 0.0 4.0 0.00 0.00 0.00 39 1016.2
20260505223003 66 14 1.0 4.0 0.00 0.00 0.00 39 1016.4
20260505222504 66 26 1.0 4.0 0.00 0.00 0.00 39 1016.3
20260505222004 66 23 1.0 5.0 0.00 0.00 0.00 39 1016.1
20260505221503 66 30 2.0 5.0 0.00 0.00 0.00 38 1016.1
20260505221003 66 42 2.0 7.0 0.00 0.00 0.00 39 1016.2
20260505220504 66 0 0.0 7.0 0.00 0.00 0.00 40 1016.2
20260505220004 66 36 2.0 7.0 0.00 0.00 0.00 42 1016.2
20260505215503 66 27 2.0 4.0 0.00 0.00 0.00 43 1016.0
20260505215003 66 0 0.0 4.0 0.00 0.00 0.00 43 1016.1
20260505214503 66 25 2.0 4.0 0.00 0.00 0.00 43 1016.1
20260505214004 66 324 1.0 4.0 0.00 0.00 0.00 43 1015.9
20260505213503 66 0 0.0 4.0 0.00 0.00 0.00 43 1015.8
20260505213003 66 62 1.0 4.0 0.00 0.00 0.00 43 1016.0
20260505212504 66 45 2.0 6.0 0.00 0.00 0.00 43 1015.9
20260505212003 67 44 1.0 6.0 0.00 0.00 0.00 43 1016.0
20260505211503 67 46 1.0 5.0 0.00 0.00 0.00 42 1016.0
20260505211003 67 223 2.0 4.0 0.00 0.00 0.00 42 1015.9